Regional Weather Roundup
Issued by NWS Green Bay, WI

Home | Current Version | Previous Version | Text Only | Print | Product List | Glossary On
Versions: 1 2 3 4 5 6 7 8 9 10 11 12 13 14 15 16 17 18 19 20 21 22 23 24 25 26 27 28 29 30 31 32 33 34 35 36 37 38 39 40 41 42 43 44 45 46 47 48 49 50
000
ASUS43 KGRB 282111
RWRGRB

NORTH-CENTRAL AND NORTHEAST WISCONSIN REGIONAL WEATHER ROUNDUP
NATIONAL WEATHER SERVICE GREEN BAY WI
400 PM CDT THU JUL 28 2016

WIZ005-009-010>012-018-019-282200-
NORTH CENTRAL WISCONSIN

CITY           SKY/WX    TMP DP  RH WIND       PRES   REMARKS
IRONWOOD       MOSUNNY   73  57  56 NE8G18    30.04S
MANITOWISH WTR CLOUDY    70  57  62 N10       30.06R
ARBOR VITAE    CLOUDY    72  57  57 NE7       30.05S
EAGLE RIVER    CLOUDY    73  51  45 E12       30.04S
LAND O LAKES   CLOUDY    71  55  56 NE8       30.06S
RHINELANDER    CLOUDY    72  56  57 NE8       30.04S
PHILLIPS       PTSUNNY   72  57  59 NE7       30.03F
ANTIGO         CLOUDY    67  61  78 CALM      30.03S
TOMAHAWK       CLOUDY    71  59  65 NE3       30.03F
MERRILL        CLOUDY    66  63  88 CALM      30.02F
$$

WIZ013-073-282200-
NORTHEAST WISCONSIN

CITY           SKY/WX    TMP DP  RH WIND       PRES   REMARKS
IRON MOUNTAIN  CLOUDY    74  52  46 NE12G21   30.02R
MARINETTE        N/A    N/A N/A N/A MISG        N/A
OCONTO         CLOUDY    65  65 100 NE5       29.99F
$$

WIZ017-030-035>037-045-282200-
CENTRAL WISCONSIN

CITY           SKY/WX    TMP DP  RH WIND       PRES   REMARKS
MEDFORD        CLOUDY    64  63  96 E3        30.02F
WAUSAU         CLOUDY    64  58  80 CALM      30.00F
MOSINEE        PTSUNNY   64  61  88 NE9       30.01F
MARSHFIELD     LGT RAIN  63  59  87 NE12      29.99S FOG
WISC RAPIDS    CLOUDY    69  61  75 E10G18    29.99S
STEVENS POINT  CLOUDY    65  59  82 NE12      30.00S
WAUPACA        CLOUDY    70  65  84 N8        29.98S
SHAWANO        CLOUDY    70  63  78 E8        30.00F
CLINTONVILLE   CLOUDY    64  59  82 E10       29.99F
WAUTOMA        CLOUDY    70  64  81 NE10      29.96S
$$

WIZ038-039-048-051-282200-
FOX VALLEY

CITY           SKY/WX    TMP DP  RH WIND       PRES   REMARKS
NWS GREEN BAY  CLOUDY    68  67  96 NE12      29.99S
APPLETON       CLOUDY    70  61  73 NE13G20   29.96F
OSHKOSH        CLOUDY    71  63  75 NE17      29.95F
FOND DU LAC    CLOUDY    75  63  66 NE14      29.95S
$$

WIZ022-050-052-282200-
EAST CENTRAL WISCONSIN

CITY           SKY/WX    TMP DP  RH WIND       PRES   REMARKS
EPHRAIM        CLOUDY    70  62  76 E5        29.99F
WASHINGTON ISL NOT AVBL
STURGEON BAY   CLOUDY    68  61  78 NE6       30.00S
MANITOWOC      CLOUDY    69  59  70 NE12G18   29.97F
SHEBOYGAN      PTSUNNY   72  62  71 NE15      29.96S
$$

LMZ563-521-522-541>543-282200-
LAKESHORE

STATION/POSITION TIME  TEMP    WIND        PRES    VSBY  WAVE
                       AIR SEA DIR/SP/G                  HT/PER
                 (UTC) (F)     (DEG/KT/KT) (MB)    (MI)  (FT/S)
SHEBOYGAN LKSHOR 2100   62      10/ 16/ 17 1014.9R
KEWAUNEE LKSHORE 2000   64      20/  7/ 10 1014.8S
ALGOMA MARINA    2013           30/ 13/ 18   N/A
NORTHPORT PIER   2000   70      80/  6/ 10 1015.6S
N MID LAKE BUOY  2050   69 71   10/  8/ 10 1014.8F         1
SISTER BAY LKSHO 2021   76      30/  7/  9   N/A
CHAMBERS ISLAND  2000   70      30/  6/  9 1015.9S
MENOMINEE LKSHOR 2000   69      40/  6/  7 1015.1F
$$



USA.gov is the U.S. government's official web portal to all federal, state and local government web resources and services.